Other Surface Observations
Issued by NWS Charleston, SC

Home | Current Version | Previous Version | Text Only | Print | Product List | Glossary On
Versions: 1 2 3 4 5 6 7 8 9 10 11 12 13 14 15 16 17 18 19 20 21 22 23 24 25 26 27 28 29 30 31 32 33 34 35 36 37 38 39 40 41 42 43 44 45 46 47 48 49 50
000
SXUS52 KCHS 221810
OSOCHS

MARINE OBSERVATIONS
NATIONAL WEATHER SERVICE CHARLESTON SC
200 PM EDT TUE JUL 22 2014

...DOWNTOWN CHARLESTON AND HARBOR...

CITY           SKY/WX    TMP DP  RH WIND       PRES   REMARKS
WATERFRONT PRK   N/A     81 N/A N/A E15         N/A
FORT JOHNSON   NOT AVBL

...LAKE MOULTRIE...

CITY           SKY/WX    TMP DP  RH WIND       PRES   REMARKS
PINOPOLIS        N/A     86  75  70 E5        30.01F HX  95

...LAKE AND SUPPLEMENTAL COASTAL OBSERVATIONS...

STATION/POSITION TIME  TEMP    WIND        PRES    WAVE   SWELL
                       AIR SEA DIR/SP/G            HT/PER HT/PER/DIR
                 (UTC) (F)     (DEG/KT/KT) (MB)    (FT/S) (FT/S/D)
FORT PULASKI     1800   82      70/  5/  6 1019.0S
SAPELO ISLAND    1700   88     110/  2     1020.0S
UPR LAKE MARION  NOT AVBL
WINYAH BAY       1700   79      10/  2     1019.0S
LAKE MURRAY      1700   79      80/  4/  9 1019.0F
ACE BASIN NERRS  1700   87        CALM     1019.0F


...C-MAN AND BUOY OBSERVATIONS...

STATION/POSITION TIME  TEMP    WIND        PRES    WAVE   SWELL
                       AIR SEA DIR/SP/G            HT/PER HT/PER/DIR
                 (UTC) (F)     (DEG/KT/KT) (MB)    (FT/S) (FT/S/D)
BUOY 41004       1800   79 83   70/  4/  6 1018.9F   3/ 5   3/ 5
BUOY 41008       1800   80 85   70/  4/  6 1019.1F   2/ 7   2/120/ 7
FOLLY BEACH CMAN 1700   79      90/ 11/ 13 1019.9F
CAPERS NS BUOY   1700   77     120/  4/  6   N/A
FRIPP NS BUOY    NOT AVBL
5E ST. MARYS GA  1800      85                N/A     2/ 7
FRYING PAN BUOY  NOT AVBL
BUOY 41025       1800          VRB 16/ 17  1019.8F   4/ 8   2/140/ 8
CAPE LOOKOUT NC  1700   76     170/ 14/ 16 1020.5F
BUOY 41002       1711   82 83  190/ 12/ 14 1022.1F   4/ 8   3/140/ 8
BUOY 41010       1800   80 83  180/ 19/ 25 1019.3R   5/ 6   2/120/ 8
BUOY 41012       NOT AVBL
ST AUGUSTINE FL  1800   81      60/  9/ 10 1019.2F


$$



USA.gov is the U.S. government's official web portal to all federal, state and local government web resources and services.